Location: Rodson Ranch
(38.7188°N, 119.3202°W)
Time: 16:57:27
(UTC+00:00)

ERS-2 - Pass Details

Date: 29 October 2020
Orbit: 493 x 498 km, 98.6° (Epoch: 23 November)

Event Time Altitude Azimuth Distance (km) Brightness Sun altitude
Rises 12:04:00 0° 147° (SSE) 2,565 6.1 -27.4°
Reaches altitude 10° 12:06:10 10° 138° (SE) 1,687 5.2 -26.9°
Maximum altitude 12:09:29 35° 72° (ENE) 811 3.6 -26.3°
Enters shadow 12:10:39 28° 33° (NNE) 962 3.8 -26.1°
